24h Messdaten per 25.10.2021 um 17:39:01

Datum Zeit Luftdruck Temp Balkon Feuchte Balkon Temp Strasse Feuchte Strasse Wind km/h Wind Boe Wind aus (Grad) Regen l/15min Sonne h/Monat
25.10.21 17:39:01 10.0 40
25.10.21 17:34:01
25.10.21 17:29:01 10.2 38
25.10.21 17:23:02 10.5 36
25.10.21 17:18:02 10.7 34
25.10.21 17:13:02 10.6 32
25.10.21 17:09:01 11.4 26
25.10.21 17:04:01 11.8 24
25.10.21 16:59:01
25.10.21 16:53:02 12.4 20
25.10.21 16:48:02 12.9 20
25.10.21 16:43:02 13.2 20 0.0
25.10.21 16:38:02 13.4 20 0.0
25.10.21 16:33:01 13.7 20 0.0
25.10.21 16:29:01 13.8 20 0.0
25.10.21 16:23:02 14.0 20 0.0
25.10.21 16:18:02 14.2 20 0.0
25.10.21 16:13:02 14.7 20 0.0
25.10.21 16:09:01 14.6 20 0.0
25.10.21 16:04:01 14.8 20 0.0
25.10.21 15:59:01 15.6 20 0.0
25.10.21 15:53:02 15.4 20 0.0
25.10.21 15:48:02 15.0 20 0.0
25.10.21 15:43:02 14.4 20 0.0
25.10.21 15:38:02 14.7 20 0.0
25.10.21 15:33:02 14.6 20 0.0
25.10.21 15:28:02 14.3 20 0.0
25.10.21 15:23:02 14.3 20 0.0
25.10.21 15:18:01 14.5 20 0.0
25.10.21 15:13:01 14.9 20 0.0
25.10.21 15:08:01 15.1 20 0.0
25.10.21 15:03:01 14.7 20 0.0
25.10.21 14:59:01 14.6 20 0.0
25.10.21 14:53:02 14.6 20 0.0
25.10.21 14:48:02 14.5 20 0.0
25.10.21 14:43:02 14.3 20 0.0
25.10.21 14:38:02 14.3 20 0.0
25.10.21 14:33:02 14.2 20 0.0
25.10.21 14:28:02 14.7 20 0.0
25.10.21 14:23:02 15.0 20 0.0
25.10.21 14:18:02 14.8 20 0.0
25.10.21 14:13:02 15.1 20 0.0
25.10.21 14:09:01 15.3 20 0.0
25.10.21 14:04:01 15.3 20 0.0
25.10.21 13:59:01 15.5 20 0.0
25.10.21 13:53:02 15.2 20 0.0
25.10.21 13:48:02 15.2 20 0.0
25.10.21 13:43:02 15.4 20 0.0
25.10.21 13:38:02 0.0
25.10.21 13:33:02 0.0
25.10.21 13:28:02 0.0
25.10.21 13:23:02 16.9 20 0.0
25.10.21 13:18:02 15.9 20 0.0
25.10.21 13:13:02 15.7 20 0.0
25.10.21 13:08:01 15.4 20 0.0
25.10.21 13:03:01 16.8 20 0.0
25.10.21 12:59:01 16.4 20 0.0
25.10.21 12:53:02 0.0
25.10.21 12:48:02 0.0
25.10.21 12:43:01 0.0
25.10.21 12:38:01 15.0 20 0.0
25.10.21 12:33:01 15.1 20 0.0
25.10.21 12:29:01 15.3 20 0.0
25.10.21 12:23:02 15.4 20 0.0
25.10.21 12:18:02 15.5 20 0.0
25.10.21 12:13:02 15.3 20 0.0
25.10.21 12:08:02 15.2 20 0.0
25.10.21 12:03:02 14.9 20 0.0
25.10.21 11:58:02 14.8 20 0.0
25.10.21 11:53:02 14.9 20 0.0
25.10.21 11:48:02 14.6 20 0.0
25.10.21 11:43:02 14.1 20 0.0
25.10.21 11:38:01 13.7 20 0.0
25.10.21 11:33:01 13.0 20 0.0
25.10.21 11:28:01 12.8 20 0.0
25.10.21 11:23:02 12.8 20 0.0
25.10.21 11:18:02 12.7 20 0.0
25.10.21 11:13:02 11.8 20 0.0
25.10.21 11:08:02 11.6 20 0.0
25.10.21 11:03:02 10.3 20 0.0
25.10.21 10:58:02 8.9 39 0.0
25.10.21 10:53:02 8.5 48 0.0
25.10.21 10:48:02 8.0 60 0.0
25.10.21 10:43:02 7.2 62 0.0
25.10.21 10:38:02 6.9 62 0.0
25.10.21 10:33:02 6.6 62 0.0
25.10.21 10:28:02 0.0
25.10.21 10:23:02 6.3 63 0.0
25.10.21 10:18:02 6.4 65 0.0
25.10.21 10:13:02 6.3 66 0.0
25.10.21 10:08:01 5.8 66 0.0
25.10.21 10:03:01 5.0 65 0.0
25.10.21 09:58:01 3.8 66 0.0
25.10.21 09:53:02 3.5 66 0.0
25.10.21 09:48:02 3.5 65 0.0
25.10.21 09:43:02 3.0 66 0.0
25.10.21 09:38:02 2.7 65 0.0
25.10.21 09:33:02 2.2 65 0.0
25.10.21 09:28:02 1.9 65 0.0
25.10.21 09:23:02 1.5 65 0.0
25.10.21 09:18:02 1.6 65 0.0
25.10.21 09:13:02 1.5 65 0.0
25.10.21 09:08:01 0.0
25.10.21 09:03:01 1.0 65 0.0
25.10.21 08:58:01 0.6 64 0.0
25.10.21 08:53:01 0.5 64 0.0
25.10.21 08:48:01 0.4 64 0.0
25.10.21 08:43:01 0.4 64 0.0
25.10.21 08:38:02 0.5 66 0.0
25.10.21 08:33:02 0.0
25.10.21 08:28:02 1.0 67 0.0
25.10.21 08:23:02 0.9 67 0.0
25.10.21 08:18:01 0.7 66 0.0
25.10.21 08:13:01 0.3 66 0.0
25.10.21 08:08:01 0.1 66 0.0
25.10.21 08:03:01 0.0 65 0.0
25.10.21 07:58:01 -0.1 65 0.0
25.10.21 07:53:02 -0.3 65 0.0
25.10.21 07:48:02 -0.2 64 0.0
25.10.21 07:43:01 0.1 65 0.0
25.10.21 07:38:02 0.3 65 0.0
25.10.21 07:33:02 0.1 66 0.0
25.10.21 07:28:02 -0.1 65 0.0
25.10.21 07:23:02 -0.2 65 0.0
25.10.21 07:18:02 -0.1 65 0.0
25.10.21 07:13:02 0.1 65 0.0
25.10.21 07:08:01 0.0 65 0.0
25.10.21 07:03:01 0.1 65 0.0
25.10.21 06:58:01 -0.3 65 0.0
25.10.21 06:53:02 -0.4 66 0.0
25.10.21 06:48:02 -0.5 65 0.0
25.10.21 06:43:02 -0.6 63 0.0
25.10.21 06:38:02 -0.5 64 0.0
25.10.21 06:33:02 -0.3 64 0.0
25.10.21 06:28:02 -0.5 65 0.0
25.10.21 06:23:02 0.0
25.10.21 06:18:02 -0.2 64 0.0
25.10.21 06:13:01 0.0 65 0.0
25.10.21 06:08:02 0.3 66 0.0
25.10.21 06:03:01 0.5 66 0.0
25.10.21 05:58:01 0.5 66 0.0
25.10.21 05:53:02 0.2 65 0.0
25.10.21 05:48:02 0.0 66 0.0
25.10.21 05:43:02 0.1 66 0.0
25.10.21 05:38:02 0.2 66 0.0
25.10.21 05:33:01 0.2 66 0.0
25.10.21 05:28:01 0.2 65 0.0
25.10.21 05:23:01 0.0 65 0.0
25.10.21 05:18:01 0.1 64 0.0
25.10.21 05:13:01 0.1 64 0.0
25.10.21 05:08:02 0.1 64 0.0
25.10.21 05:03:01 0.3 63 0.0
25.10.21 04:58:01 0.5 63 0.0
25.10.21 04:53:02 0.7 63 0.0
25.10.21 04:48:02 1.2 64 0.0
25.10.21 04:43:02 1.5 64 0.0
25.10.21 04:38:02 1.3 64 0.0
25.10.21 04:33:02 1.1 64 0.0
25.10.21 04:28:02 0.0
25.10.21 04:23:02 0.7 63 0.0
25.10.21 04:18:02 0.6 63 0.0
25.10.21 04:13:02 0.8 64 0.0
25.10.21 04:08:01 0.8 65 0.0
25.10.21 04:03:01 0.7 65 0.0
25.10.21 03:58:01 0.3 64 0.0
25.10.21 03:53:01 0.9 65 0.0
25.10.21 03:48:01 1.0 65 0.0
25.10.21 03:43:01 0.6 64 0.0
25.10.21 03:38:02 0.1 64 0.0
25.10.21 03:33:02 0.1 64 0.0
25.10.21 03:28:02 0.4 64 0.0
25.10.21 03:23:02 0.4 64 0.0
25.10.21 03:18:01 0.4 65 0.0
25.10.21 03:13:01 0.5 66 0.0
25.10.21 03:08:02 0.5 65 0.0
25.10.21 03:03:02 0.5 65 0.0
25.10.21 02:58:02 0.2 65 0.0
25.10.21 02:53:00 0.2 65 0.0
25.10.21 02:48:00 0.2 64 0.0
25.10.21 02:43:00 0.0 64 0.0
25.10.21 02:38:01 0.0 64 0.0
25.10.21 02:33:01 0.1 64 0.0
25.10.21 02:28:01 0.2 64 0.0
25.10.21 02:23:01 0.4 64 0.0
25.10.21 02:18:01 0.5 63 0.0
25.10.21 02:13:01 0.5 63 0.0
25.10.21 02:08:00 0.4 63 0.0
25.10.21 02:03:00 0.6 63 0.0
25.10.21 01:58:00 0.8 65 0.0
25.10.21 01:53:00 0.7 65 0.0
25.10.21 01:48:00 0.9 65 0.0
25.10.21 01:43:00 0.9 65 0.0
25.10.21 01:38:00 0.4 64 0.0
25.10.21 01:33:00 0.8 64 0.0
25.10.21 01:28:00 1.0 64 0.0
25.10.21 01:23:01 0.7 64 0.0
25.10.21 01:18:01 0.8 63 0.0
25.10.21 01:13:01 1.2 64 0.0
25.10.21 01:08:00 1.6 64 0.0
25.10.21 01:03:00 1.6 64 0.0
25.10.21 00:58:00 1.3 64 0.0
25.10.21 00:53:01 0.0
25.10.21 00:48:01 1.8 64 0.0
25.10.21 00:43:01 1.8 64 0.0
25.10.21 00:38:00 2.0 64 0.0
25.10.21 00:33:00 2.1 64 0.0
25.10.21 00:28:00 2.4 64 0.0
25.10.21 00:23:01 2.3 64 0.0
25.10.21 00:18:01 2.2 64 0.0
25.10.21 00:13:01 1.9 64 0.0
25.10.21 00:08:00 1.8 63 0.0
25.10.21 00:03:00 0.0
24.10.21 23:58:00 1.3 61 0.0
24.10.21 23:53:00 1.6 63 0.0
24.10.21 23:48:00 1.7 63 0.0
24.10.21 23:43:00 1.7 62 0.0
24.10.21 23:38:01 1.6 62 0.0
24.10.21 23:33:01 1.4 62 0.0
24.10.21 23:28:01 1.6 62 0.0
24.10.21 23:23:02 1.5 61 0.0
24.10.21 23:18:02 1.7 61 0.0
24.10.21 23:13:01 1.7 60 0.0
24.10.21 23:08:00 2.1 60 0.0
24.10.21 23:03:00 2.4 61 0.0
24.10.21 22:58:00 0.0
24.10.21 22:53:00 2.1 61 0.0
24.10.21 22:48:00 1.4 58 0.0
24.10.21 22:43:00 1.5 20 0.0
24.10.21 22:38:01 1.5 58 0.0
24.10.21 22:33:01 1.7 56 0.0
24.10.21 22:28:01 1.6 56 0.0
24.10.21 22:23:01 1.9 56 0.0
24.10.21 22:18:01 1.9 57 0.0
24.10.21 22:13:01 2.5 58 0.0
24.10.21 22:08:01 2.1 58 0.0
24.10.21 22:03:01 2.2 56 0.0
24.10.21 21:58:01 2.0 55 0.0
24.10.21 21:53:02 2.3 55 0.0
24.10.21 21:48:02 2.6 55 0.0
24.10.21 21:43:01 2.1 53 0.0
24.10.21 21:38:01 1.8 53 0.0
24.10.21 21:33:01 1.9 53 0.0
24.10.21 21:28:01 2.2 52 0.0
24.10.21 21:23:01 2.3 52 0.0
24.10.21 21:18:01 2.4 52 0.0
24.10.21 21:13:01 2.4 52 0.0
24.10.21 21:08:01 2.6 51 0.0
24.10.21 21:03:01 0.0
24.10.21 20:58:01 2.6 52 0.0
24.10.21 20:53:00 2.5 50 0.0
24.10.21 20:48:00 2.6 49 0.0
24.10.21 20:43:00 2.6 49 0.0
24.10.21 20:38:01 2.7 48 0.0
24.10.21 20:33:01 2.5 47 0.0
24.10.21 20:28:01 0.0
24.10.21 20:23:01 2.4 47 0.0
24.10.21 20:18:01 0.0
24.10.21 20:13:01 3.0 46 0.0
24.10.21 20:08:01 3.2 45 0.0
24.10.21 20:03:01 3.7 46 0.0
24.10.21 19:58:01 3.9 44 0.0
24.10.21 19:53:01 4.0 43 0.0
24.10.21 19:48:01 4.2 42 0.0
24.10.21 19:43:01 4.8 41 0.0
24.10.21 19:38:01 5.0 41 0.0
24.10.21 19:33:01 6.1 43 0.0
24.10.21 19:28:01 6.1 44 0.0
24.10.21 19:23:00 6.0 45 0.0
24.10.21 19:18:00 5.5 46 0.0
24.10.21 19:13:00 5.2 45 0.0
24.10.21 19:08:01 5.0 45 0.0
24.10.21 19:03:01 4.7 46 0.0
24.10.21 18:58:01 4.7 45 0.0
24.10.21 18:53:01 5.0 45 0.0
24.10.21 18:48:01 5.4 44 0.0
24.10.21 18:43:01 6.0 44 0.0
24.10.21 18:38:01 6.2 45 0.0
24.10.21 18:33:01 6.0 44 0.0
24.10.21 18:28:01 6.4 43 0.0
24.10.21 18:23:01 6.4 41 0.0
24.10.21 18:18:01 7.0 42 0.0
24.10.21 18:13:01 6.9 41 0.0
24.10.21 18:08:01 6.9 39 0.0
24.10.21 18:03:01 7.0 36 0.0
24.10.21 17:58:01 7.1 36 0.0
24.10.21 17:53:01 7.3 35 0.0
24.10.21 17:48:01 0.0
24.10.21 17:43:01 8.3 34 0.0
Index
© 2002-2021 Thomas Dreßler
Alle Rechte vorbehalten
letzte Scriptänderung 21.03.2021